Location: The Saddle
(36.8333°N, 80.3417°W)
Time: 13:27:42
(UTC-04:00)

Hubble Space Telescope - Visible Passes

Search period start: 30 September 2023 00:00
Search period end: 10 October 2023 00:00
Orbit: 521 x 525 km, 28.5° (Epoch: 29 September)

Date Brightness Start Highest point End Pass type
(mag) Time Alt. Az. Time Alt. Az. Time Alt. Az.
05 Oct 3.0 20:33:17 10° S 20:34:20 12° S 20:34:20 12° S visible
06 Oct 2.7 20:17:14 10° SSW 20:19:33 15° SSE 20:19:47 15° SSE visible
07 Oct 2.6 20:01:18 10° SSW 20:03:52 16° SSE 20:05:10 14° SE visible
08 Oct 2.6 19:45:25 10° SSW 19:48:12 18° SSE 19:50:29 12° SE visible
08 Oct 3.6 21:25:10 10° SW 21:25:30 12° SW 21:25:30 12° SW visible
09 Oct 2.6 19:29:34 10° SW 19:32:31 19° SSE 19:35:28 10° ESE visible
09 Oct 3.1 21:09:31 10° WSW 21:10:46 17° SW 21:10:46 17° SW visible
